contact:dominique.lefevre@mio.osupytheas.fr, maurice.libes@osupytheas.fr, didier.mallarino@osupytheas.fr
Project:EMSO http://www.emso-fr.org/EMSO-France
Depth: 2436.0 m
Title:EMSO Ligure Ouest : Data MII capteur AQUADOPP
Date,Latitude,Longitude,X_East,Y_North,Z_Up,Amplitude_X,Amplitude_Y,Amplitude_Z,Batterie,SoundSpeed,Heading,Pitch,Roll,Pressure,TIS,Speed,Direction
, degrees North, degrees East, m.s-1, m.s-1,m.s-1, 1, 1, 1, Volt, m.s-1, degree, degree, degree, dbar, degree_C, m.s-1, degree
2022-02-17T00:04:02,42.805,6.029,0.061,-0.017,-0.005,105.0,104.0,102.0,13.4,1505.2,326.8,-0.8,1.8,2470.656,13.28,0.063,105.6
2022-02-17T00:07:02,42.805,6.029,0.044,-0.02,-0.016,106.0,105.0,102.0,13.4,1505.2,328.5,-0.7,1.8,2470.658,13.28,0.048,114.4
2022-02-17T00:10:03,42.805,6.029,0.055,-0.003,0.004,106.0,104.0,103.0,13.4,1505.2,323.7,-0.8,1.8,2470.648,13.28,0.055,93.1
2022-02-17T00:13:03,42.805,6.029,0.033,0.0,-0.002,106.0,105.0,103.0,13.4,1505.2,325.6,-0.8,1.8,2470.632,13.28,0.033,90.0
2022-02-17T00:16:03,42.805,6.029,0.045,-0.009,0.002,105.0,106.0,102.0,13.3,1505.2,327.9,-0.7,1.8,2470.646,13.28,0.045,101.3
2022-02-17T00:19:03,42.805,6.029,0.05,-0.013,-0.003,105.0,105.0,104.0,13.4,1505.2,327.3,-0.8,1.9,2470.629,13.28,0.051,104.6
2022-02-17T00:22:02,42.805,6.029,0.044,-0.015,-0.005,104.0,106.0,104.0,13.3,1505.2,327.1,-0.8,1.9,2470.683,13.28,0.046,108.8
2022-02-17T00:25:03,42.805,6.029,0.028,-0.015,-0.027,105.0,106.0,102.0,13.4,1505.2,326.3,-0.8,1.8,2470.618,13.28,0.031,118.2
2022-02-17T00:28:03,42.805,6.029,0.048,-0.031,0.0,104.0,103.0,103.0,13.4,1505.2,326.4,-0.8,1.9,2470.662,13.28,0.057,122.9
2022-02-17T00:31:03,42.805,6.029,0.041,-0.01,-0.018,105.0,105.0,102.0,13.4,1505.2,329.1,-0.7,1.9,2470.598,13.28,0.042,103.7
2022-02-17T00:34:03,42.805,6.029,0.064,-0.014,0.007,106.0,103.0,102.0,13.4,1505.2,327.4,-0.8,1.8,2470.599,13.28,0.065,102.3
2022-02-17T00:37:03,42.805,6.029,0.035,-0.007,-0.007,105.0,105.0,102.0,13.4,1505.2,326.1,-0.8,1.8,2470.648,13.28,0.035,101.3
2022-02-17T00:40:03,42.805,6.029,0.048,-0.018,-0.034,104.0,105.0,102.0,13.3,1505.2,326.9,-0.8,1.8,2470.647,13.28,0.051,110.6
2022-02-17T00:43:03,42.805,6.029,0.057,-0.038,0.016,105.0,104.0,102.0,13.3,1505.2,327.3,-0.7,1.8,2470.603,13.28,0.068,123.7
2022-02-17T00:46:03,42.805,6.029,0.018,-0.003,0.0,103.0,104.0,103.0,13.4,1505.2,327.8,-0.8,1.8,2470.648,13.28,0.018,99.5
2022-02-17T00:49:03,42.805,6.029,0.045,-0.025,0.001,105.0,105.0,102.0,13.4,1505.2,331.6,-0.8,1.8,2470.615,13.28,0.051,119.1
2022-02-17T00:52:03,42.805,6.029,0.065,-0.005,0.004,105.0,104.0,103.0,13.4,1505.2,326.0,-0.8,1.8,2470.628,13.28,0.065,94.4
2022-02-17T00:55:03,42.805,6.029,0.058,-0.015,-0.005,105.0,105.0,102.0,13.4,1505.2,328.8,-0.7,1.8,2470.591,13.28,0.059,104.5
2022-02-17T00:58:03,42.805,6.029,0.062,-0.021,-0.011,104.0,105.0,101.0,13.4,1505.2,328.2,-0.7,1.8,2470.58,13.28,0.065,108.7
2022-02-17T01:04:02,42.805,6.029,0.066,-0.026,0.01,105.0,105.0,103.0,13.3,1505.2,331.1,-0.8,1.8,2470.643,13.28,0.07,111.5
2022-02-17T01:07:03,42.805,6.029,0.05,-0.034,-0.004,106.0,105.0,103.0,13.3,1505.2,328.3,-0.8,1.8,2470.623,13.28,0.06,124.2
2022-02-17T01:10:02,42.805,6.029,0.04,-0.019,-0.012,104.0,105.0,103.0,13.4,1505.2,326.0,-0.8,1.8,2470.665,13.28,0.044,115.4
2022-02-17T01:13:03,42.805,6.029,0.036,-0.014,-0.004,104.0,102.0,102.0,13.3,1505.2,324.3,-0.8,1.8,2470.622,13.28,0.038,111.2
2022-02-17T01:16:03,42.805,6.029,0.05,-0.003,0.007,104.0,104.0,102.0,13.3,1505.2,326.3,-0.8,1.8,2470.669,13.28,0.05,93.4
2022-02-17T01:19:03,42.805,6.029,0.067,-0.016,-0.015,103.0,103.0,101.0,13.3,1505.2,330.2,-0.8,1.8,2470.64,13.28,0.068,103.4
2022-02-17T01:22:03,42.805,6.029,0.039,-0.025,-0.019,104.0,103.0,101.0,13.4,1505.2,325.2,-0.7,1.8,2470.623,13.28,0.046,122.7
2022-02-17T01:25:03,42.805,6.029,0.056,-0.035,-0.017,102.0,104.0,103.0,13.4,1505.2,325.9,-0.7,1.8,2470.623,13.28,0.066,122.0
2022-02-17T01:28:03,42.805,6.029,0.042,-0.022,-0.008,104.0,103.0,101.0,13.3,1505.2,325.6,-0.8,1.8,2470.62,13.28,0.047,117.6
2022-02-17T01:31:03,42.805,6.029,0.033,-0.034,-0.023,104.0,104.0,102.0,13.3,1505.2,330.0,-0.7,1.8,2470.62,13.28,0.047,135.9
2022-02-17T01:34:03,42.805,6.029,0.047,-0.014,0.015,103.0,104.0,101.0,13.4,1505.2,327.1,-0.7,1.8,2470.63,13.28,0.049,106.6
2022-02-17T01:37:02,42.805,6.029,0.053,-0.014,-0.019,104.0,104.0,101.0,13.4,1505.2,328.9,-0.8,1.8,2470.625,13.28,0.054,104.8
2022-02-17T01:40:03,42.805,6.029,0.061,-0.008,-0.003,101.0,103.0,102.0,13.3,1505.2,323.3,-0.8,1.8,2470.603,13.28,0.061,97.5
2022-02-17T01:43:03,42.805,6.029,0.041,-0.026,-0.031,104.0,102.0,101.0,13.4,1505.2,325.6,-0.7,1.8,2470.62,13.28,0.048,122.4
2022-02-17T01:46:03,42.805,6.029,0.074,-0.024,0.01,103.0,103.0,101.0,13.4,1505.2,331.1,-0.7,1.8,2470.638,13.28,0.077,108.0
2022-02-17T01:49:03,42.805,6.029,0.052,-0.035,0.01,104.0,101.0,102.0,13.4,1505.2,326.0,-0.8,1.8,2470.525,13.28,0.062,123.9
2022-02-17T01:52:03,42.805,6.029,0.051,-0.03,0.006,103.0,102.0,102.0,13.4,1505.2,329.1,-0.7,1.8,2470.585,13.28,0.059,120.5
2022-02-17T01:55:03,42.805,6.029,0.053,-0.025,-0.011,103.0,102.0,101.0,13.4,1505.2,328.1,-0.8,1.8,2470.607,13.28,0.058,115.3
2022-02-17T01:58:03,42.805,6.029,0.056,-0.01,-0.016,103.0,102.0,101.0,13.4,1505.2,327.1,-0.7,1.8,2470.61,13.28,0.056,100.1
2022-02-17T02:04:02,42.805,6.029,0.068,-0.012,0.01,102.0,102.0,102.0,13.4,1505.2,325.8,-0.8,1.8,2470.651,13.28,0.069,100.0
2022-02-17T02:07:03,42.805,6.029,0.038,-0.017,-0.009,103.0,103.0,101.0,13.4,1505.2,328.7,-0.8,1.8,2470.6,13.28,0.041,114.1
2022-02-17T02:10:03,42.805,6.029,0.066,-0.016,-0.03,104.0,103.0,101.0,13.3,1505.2,323.8,-0.7,1.9,2470.615,13.28,0.067,103.6
2022-02-17T02:13:03,42.805,6.029,0.052,-0.035,-0.013,103.0,105.0,102.0,13.4,1505.2,324.4,-0.7,1.8,2470.574,13.28,0.062,123.9
2022-02-17T02:16:03,42.805,6.029,0.069,-0.037,-0.007,103.0,102.0,101.0,13.4,1505.2,327.4,-0.8,1.8,2470.547,13.28,0.078,118.2
2022-02-17T02:19:03,42.805,6.029,0.042,-0.009,-0.007,103.0,104.0,100.0,13.4,1505.2,325.0,-0.8,1.8,2470.621,13.28,0.042,102.1
2022-02-17T02:22:03,42.805,6.029,0.056,-0.012,-0.001,103.0,102.0,101.0,13.3,1505.2,325.7,-0.7,1.8,2470.591,13.28,0.057,102.1
2022-02-17T02:25:03,42.805,6.029,0.074,-0.009,0.01,102.0,101.0,101.0,13.4,1505.2,329.2,-0.7,1.8,2470.622,13.28,0.074,96.9
2022-02-17T02:28:03,42.805,6.029,0.04,-0.007,-0.021,101.0,103.0,100.0,13.4,1505.2,324.6,-0.7,1.8,2470.623,13.28,0.04,99.9
2022-02-17T02:31:03,42.805,6.029,0.058,-0.027,-0.01,103.0,101.0,100.0,13.3,1505.2,329.6,-0.8,1.8,2470.601,13.28,0.063,115.0
2022-02-17T02:34:03,42.805,6.029,0.065,-0.025,-0.039,102.0,102.0,101.0,13.4,1505.2,325.6,-0.7,1.8,2470.619,13.28,0.069,111.0
2022-02-17T02:37:03,42.805,6.029,0.065,-0.004,-0.01,103.0,100.0,101.0,13.4,1505.2,324.8,-0.8,1.8,2470.624,13.28,0.065,93.5
2022-02-17T02:40:03,42.805,6.029,0.076,-0.017,-0.011,102.0,101.0,101.0,13.4,1505.2,323.5,-0.8,1.8,2470.602,13.28,0.077,102.6
2022-02-17T02:43:03,42.805,6.029,0.064,-0.034,-0.02,101.0,103.0,100.0,13.4,1505.2,325.4,-0.8,1.8,2470.646,13.28,0.072,118.0
2022-02-17T02:46:03,42.805,6.029,0.024,-0.032,-0.035,100.0,103.0,102.0,13.3,1505.2,329.2,-0.7,1.8,2470.637,13.28,0.04,143.1
2022-02-17T02:49:03,42.805,6.029,0.069,-0.012,0.023,102.0,101.0,101.0,13.4,1505.2,331.3,-0.8,1.8,2470.639,13.28,0.07,99.9
2022-02-17T02:52:03,42.805,6.029,0.055,-0.003,-0.006,102.0,101.0,100.0,13.4,1505.2,331.5,-0.8,1.8,2470.631,13.28,0.055,93.1
2022-02-17T02:55:03,42.805,6.029,0.079,-0.026,0.007,103.0,102.0,100.0,13.4,1505.2,331.2,-0.7,1.8,2470.622,13.28,0.083,108.2
2022-02-17T02:58:03,42.805,6.029,0.043,-0.024,-0.055,102.0,102.0,101.0,13.3,1505.2,326.2,-0.8,1.9,2470.624,13.28,0.049,119.2
2022-02-17T03:04:02,42.805,6.029,0.069,-0.023,0.015,102.0,102.0,100.0,13.3,1505.2,323.2,-0.7,1.8,2470.682,13.28,0.072,108.4
2022-02-17T03:07:03,42.805,6.029,0.079,-0.019,0.006,101.0,103.0,101.0,13.4,1505.2,329.7,-0.8,1.8,2470.684,13.28,0.081,103.5
2022-02-17T03:10:03,42.805,6.029,0.04,-0.021,0.005,103.0,102.0,100.0,13.4,1505.2,326.5,-0.7,1.8,2470.613,13.28,0.045,117.7
2022-02-17T03:13:03,42.805,6.029,0.045,-0.031,-0.02,101.0,102.0,101.0,13.4,1505.2,331.6,-0.8,1.8,2470.627,13.28,0.054,124.6
2022-02-17T03:16:03,42.805,6.029,0.036,-0.008,-0.001,102.0,102.0,101.0,13.4,1505.2,331.4,-0.8,1.8,2470.649,13.28,0.036,102.5
2022-02-17T03:19:03,42.805,6.029,0.047,0.001,0.05,102.0,103.0,101.0,13.4,1505.2,325.9,-0.8,1.8,2470.627,13.28,0.047,88.8
2022-02-17T03:22:03,42.805,6.029,0.069,-0.023,-0.015,102.0,101.0,100.0,13.4,1505.2,325.5,-0.7,1.8,2470.68,13.28,0.072,108.4
2022-02-17T03:25:03,42.805,6.029,0.045,-0.019,-0.026,102.0,104.0,101.0,13.4,1505.2,329.1,-0.8,1.8,2470.64,13.28,0.048,112.9
2022-02-17T03:28:03,42.805,6.029,0.061,-0.015,0.003,102.0,103.0,100.0,13.3,1505.2,323.1,-0.8,1.8,2470.67,13.28,0.062,103.8
2022-02-17T03:31:03,42.805,6.029,0.059,-0.033,-0.027,103.0,102.0,101.0,13.3,1505.2,326.7,-0.8,1.8,2470.668,13.28,0.067,119.2
2022-02-17T03:34:03,42.805,6.029,0.06,-0.028,-0.003,103.0,101.0,101.0,13.4,1505.2,331.0,-0.8,1.8,2470.663,13.28,0.066,115.0
2022-02-17T03:37:03,42.805,6.029,0.05,-0.022,-0.021,103.0,101.0,101.0,13.3,1505.2,329.2,-0.7,1.8,2470.703,13.28,0.054,113.7
2022-02-17T03:40:03,42.805,6.029,0.054,-0.021,-0.028,102.0,102.0,101.0,13.4,1505.2,325.5,-0.7,1.8,2470.645,13.28,0.057,111.2
2022-02-17T03:43:03,42.805,6.029,0.033,-0.042,-0.049,102.0,102.0,100.0,13.4,1505.2,327.8,-0.7,1.8,2470.651,13.28,0.053,141.8
2022-02-17T03:46:03,42.805,6.029,0.041,-0.015,-0.004,102.0,101.0,101.0,13.3,1505.2,324.8,-0.8,1.8,2470.685,13.28,0.043,110.1
2022-02-17T03:49:03,42.805,6.029,0.053,-0.017,0.004,101.0,101.0,101.0,13.4,1505.2,327.5,-0.7,1.8,2470.655,13.28,0.055,107.8
2022-02-17T03:52:03,42.805,6.029,0.041,-0.016,0.007,102.0,100.0,102.0,13.4,1505.2,329.6,-0.8,1.8,2470.656,13.28,0.044,111.3
2022-02-17T03:55:03,42.805,6.029,0.046,-0.038,-0.011,101.0,102.0,100.0,13.3,1505.2,331.0,-0.8,1.8,2470.676,13.28,0.059,129.6
2022-02-17T03:58:03,42.805,6.029,0.045,-0.026,0.017,102.0,101.0,101.0,13.3,1505.2,325.8,-0.8,1.8,2470.698,13.28,0.051,120.0
2022-02-17T04:04:02,42.805,6.029,0.049,-0.039,-0.034,102.0,102.0,101.0,13.3,1505.2,329.4,-0.8,1.8,2470.756,13.28,0.062,128.5
2022-02-17T04:07:03,42.805,6.029,0.049,-0.023,-0.013,101.0,101.0,100.0,13.4,1505.2,327.0,-0.8,1.8,2470.703,13.28,0.054,115.1
2022-02-17T04:10:03,42.805,6.029,0.009,-0.015,-0.013,102.0,102.0,101.0,13.3,1505.2,330.1,-0.8,1.8,2470.699,13.28,0.017,149.0
2022-02-17T04:13:03,42.805,6.029,0.052,-0.017,-0.002,102.0,102.0,101.0,13.4,1505.2,331.7,-0.8,1.8,2470.709,13.28,0.054,108.1
2022-02-17T04:16:03,42.805,6.029,0.055,-0.025,-0.016,103.0,102.0,101.0,13.4,1505.2,325.8,-0.8,1.8,2470.703,13.28,0.06,114.4
2022-02-17T04:19:03,42.805,6.029,0.04,-0.014,-0.021,102.0,101.0,101.0,13.3,1505.2,329.0,-0.8,1.8,2470.715,13.28,0.042,109.3
2022-02-17T04:22:03,42.805,6.029,0.062,-0.006,-0.008,103.0,104.0,100.0,13.4,1505.2,325.8,-0.8,1.8,2470.722,13.28,0.062,95.5
2022-02-17T04:25:03,42.805,6.029,0.047,-0.017,-0.03,101.0,103.0,100.0,13.4,1505.2,325.2,-0.8,1.8,2470.719,13.28,0.049,109.9
2022-02-17T04:28:03,42.805,6.029,0.018,-0.031,-0.004,102.0,101.0,101.0,13.4,1505.2,328.5,-0.7,1.8,2470.715,13.28,0.035,149.9
2022-02-17T04:31:03,42.805,6.029,0.068,-0.019,-0.024,102.0,102.0,100.0,13.3,1505.2,324.9,-0.7,1.8,2470.71,13.28,0.07,105.6
2022-02-17T04:34:03,42.805,6.029,0.042,-0.016,-0.019,101.0,102.0,101.0,13.4,1505.2,325.6,-0.7,1.8,2470.706,13.28,0.044,110.9
2022-02-17T04:37:03,42.805,6.029,0.064,-0.009,0.05,102.0,102.0,100.0,13.3,1505.2,328.9,-0.7,1.8,2470.707,13.28,0.064,98.0
2022-02-17T04:40:03,42.805,6.029,0.046,-0.021,-0.021,102.0,101.0,101.0,13.4,1505.2,324.5,-0.8,1.8,2470.73,13.28,0.05,114.5
2022-02-17T04:43:03,42.805,6.029,0.061,-0.027,-0.023,101.0,101.0,102.0,13.4,1505.2,330.5,-0.8,1.8,2470.724,13.28,0.066,113.9
2022-02-17T04:46:03,42.805,6.029,0.025,-0.033,-0.021,102.0,101.0,100.0,13.3,1505.2,326.3,-0.8,1.8,2470.746,13.28,0.041,142.8
2022-02-17T04:49:03,42.805,6.029,0.038,-0.021,-0.029,101.0,102.0,101.0,13.4,1505.2,327.4,-0.8,1.8,2470.762,13.28,0.043,118.9
2022-02-17T04:52:03,42.805,6.029,0.068,-0.017,-0.009,101.0,102.0,101.0,13.4,1505.2,327.8,-0.8,1.8,2470.741,13.28,0.07,104.0
2022-02-17T04:55:03,42.805,6.029,0.037,-0.013,-0.044,102.0,101.0,102.0,13.4,1505.2,323.3,-0.7,1.8,2470.733,13.28,0.039,109.4
2022-02-17T04:58:03,42.805,6.029,0.047,-0.036,0.004,102.0,102.0,101.0,13.3,1505.2,330.2,-0.8,1.8,2470.73,13.28,0.059,127.5
2022-02-17T05:04:02,42.805,6.029,0.034,-0.029,-0.028,101.0,101.0,101.0,13.4,1505.2,328.8,-0.8,1.8,2470.796,13.28,0.044,130.5
2022-02-17T05:07:03,42.805,6.029,0.048,-0.014,0.018,102.0,102.0,101.0,13.4,1505.2,323.4,-0.7,1.8,2470.744,13.28,0.05,106.3
2022-02-17T05:10:03,42.805,6.029,0.05,-0.016,-0.001,101.0,101.0,100.0,13.4,1505.2,323.1,-0.7,1.8,2470.77,13.28,0.052,107.7
2022-02-17T05:13:03,42.805,6.029,0.044,-0.017,0.001,102.0,101.0,101.0,13.4,1505.2,330.8,-0.8,1.8,2470.728,13.28,0.047,111.1
2022-02-17T05:16:03,42.805,6.029,0.019,-0.02,0.016,103.0,101.0,100.0,13.4,1505.2,326.9,-0.7,1.8,2470.77,13.28,0.027,136.5
2022-02-17T05:19:03,42.805,6.029,0.045,-0.032,-0.021,102.0,101.0,101.0,13.3,1505.2,329.4,-0.7,1.8,2470.766,13.28,0.055,125.4
2022-02-17T05:22:03,42.805,6.029,0.037,-0.029,-0.034,101.0,101.0,101.0,13.3,1505.2,328.8,-0.7,1.8,2470.786,13.28,0.047,128.1
2022-02-17T05:25:03,42.805,6.029,0.05,-0.036,0.001,100.0,102.0,101.0,13.4,1505.2,323.3,-0.8,1.8,2470.783,13.28,0.061,125.8
2022-02-17T05:28:03,42.805,6.029,0.053,-0.013,-0.002,101.0,102.0,101.0,13.4,1505.2,323.9,-0.8,1.8,2470.783,13.28,0.054,103.8
2022-02-17T05:31:03,42.805,6.029,0.05,-0.025,-0.003,103.0,103.0,99.0,13.4,1505.2,331.0,-0.8,1.8,2470.814,13.28,0.055,116.6
2022-02-17T05:34:03,42.805,6.029,0.056,-0.017,0.0,102.0,101.0,101.0,13.4,1505.2,325.7,-0.7,1.8,2470.797,13.28,0.058,106.9
2022-02-17T05:37:03,42.805,6.029,0.031,-0.012,-0.016,101.0,102.0,100.0,13.4,1505.2,328.8,-0.8,1.8,2470.794,13.28,0.033,111.2
2022-02-17T05:40:03,42.805,6.029,0.048,-0.014,-0.043,101.0,102.0,100.0,13.3,1505.2,329.9,-0.8,1.8,2470.776,13.28,0.05,106.3
2022-02-17T05:43:03,42.805,6.029,0.037,-0.026,-0.003,102.0,102.0,101.0,13.4,1505.2,325.6,-0.7,1.8,2470.786,13.28,0.045,125.1
2022-02-17T05:46:03,42.805,6.029,0.059,-0.015,-0.004,101.0,101.0,100.0,13.4,1505.2,331.0,-0.8,1.8,2470.794,13.28,0.06,104.3
2022-02-17T05:49:03,42.805,6.029,0.033,-0.017,-0.021,100.0,101.0,102.0,13.4,1505.2,326.3,-0.8,1.8,2470.807,13.28,0.037,117.3
2022-02-17T05:52:03,42.805,6.029,0.05,-0.014,0.007,101.0,100.0,101.0,13.4,1505.2,327.9,-0.8,1.8,2470.784,13.28,0.051,105.6
2022-02-17T05:55:03,42.805,6.029,0.026,-0.019,-0.02,101.0,101.0,100.0,13.4,1505.2,324.3,-0.8,1.8,2470.804,13.28,0.032,126.2
2022-02-17T05:58:03,42.805,6.029,0.055,-0.034,-0.006,102.0,101.0,101.0,13.4,1505.2,327.1,-0.7,1.8,2470.828,13.28,0.064,121.7
2022-02-17T06:04:03,42.805,6.029,0.045,-0.014,-0.004,101.0,102.0,100.0,13.4,1505.2,329.0,-0.7,1.8,2470.836,13.28,0.047,107.3
2022-02-17T06:07:03,42.805,6.029,0.021,-0.031,-0.041,101.0,101.0,101.0,13.4,1505.2,325.4,-0.7,1.8,2470.784,13.28,0.037,145.9
2022-02-17T06:10:03,42.805,6.029,0.036,-0.003,-0.009,102.0,102.0,100.0,13.4,1505.2,326.6,-0.7,1.8,2470.838,13.28,0.036,94.8
2022-02-17T06:13:03,42.805,6.029,0.034,-0.023,-0.008,100.0,103.0,100.0,13.4,1505.2,324.0,-0.8,1.8,2470.856,13.28,0.041,124.1
2022-02-17T06:16:03,42.805,6.029,0.025,-0.047,-0.063,100.0,101.0,101.0,13.3,1505.2,324.9,-0.8,1.8,2470.867,13.28,0.053,152.0
2022-02-17T06:19:03,42.805,6.029,0.043,-0.014,-0.01,100.0,101.0,101.0,13.3,1505.2,324.9,-0.8,1.8,2470.831,13.28,0.045,108.0
2022-02-17T06:22:03,42.805,6.029,0.007,-0.011,-0.025,101.0,102.0,99.0,13.4,1505.2,332.5,-0.7,1.8,2470.856,13.28,0.013,147.5
2022-02-17T06:25:03,42.805,6.029,0.02,-0.031,-0.046,99.0,101.0,101.0,13.4,1505.2,326.6,-0.8,1.8,2470.882,13.28,0.036,147.2
2022-02-17T06:28:03,42.805,6.029,0.053,-0.007,0.01,103.0,102.0,100.0,13.4,1505.2,328.7,-0.8,1.8,2470.866,13.28,0.053,97.5
2022-02-17T06:31:03,42.805,6.029,0.03,-0.018,0.01,102.0,103.0,99.0,13.3,1505.2,330.3,-0.8,1.8,2470.858,13.28,0.034,121.0
2022-02-17T06:34:03,42.805,6.029,0.054,-0.014,0.01,102.0,101.0,100.0,13.4,1505.2,332.0,-0.7,1.9,2470.837,13.28,0.055,104.5
2022-02-17T06:37:03,42.805,6.029,0.043,-0.038,-0.013,101.0,101.0,100.0,13.3,1505.2,328.0,-0.7,1.8,2470.895,13.28,0.057,131.5
2022-02-17T06:40:03,42.805,6.029,0.053,-0.001,0.002,101.0,102.0,101.0,13.4,1505.2,325.8,-0.7,1.9,2470.854,13.28,0.053,91.1
2022-02-17T06:43:03,42.805,6.029,0.055,-0.016,0.004,101.0,102.0,101.0,13.4,1505.2,327.1,-0.8,1.8,2470.872,13.28,0.057,106.2
2022-02-17T06:46:03,42.805,6.029,0.016,0.007,-0.006,102.0,100.0,100.0,13.4,1505.2,324.2,-0.8,1.8,2470.865,13.28,0.017,66.4
2022-02-17T06:49:03,42.805,6.029,0.036,-0.029,-0.018,102.0,99.0,101.0,13.4,1505.2,327.3,-0.7,1.8,2470.852,13.28,0.046,128.9
2022-02-17T06:52:03,42.805,6.029,0.02,-0.013,-0.013,101.0,100.0,100.0,13.4,1505.2,327.5,-0.7,1.8,2470.824,13.28,0.023,123.0
2022-02-17T06:55:03,42.805,6.029,0.034,-0.042,0.006,102.0,101.0,100.0,13.4,1505.2,329.7,-0.8,1.8,2470.843,13.28,0.054,141.0
2022-02-17T06:58:03,42.805,6.029,0.008,0.004,0.011,102.0,102.0,99.0,13.4,1505.2,327.7,-0.8,1.8,2470.83,13.28,0.008,63.4
2022-02-17T07:04:03,42.805,6.029,0.023,-0.02,0.001,102.0,100.0,100.0,13.4,1505.2,324.1,-0.8,1.8,2470.902,13.28,0.03,131.0
2022-02-17T07:07:03,42.805,6.029,0.022,-0.022,-0.035,101.0,101.0,101.0,13.3,1505.2,327.7,-0.7,1.8,2470.88,13.28,0.031,135.0
2022-02-17T07:10:03,42.805,6.029,0.019,-0.036,-0.042,101.0,101.0,100.0,13.3,1505.2,325.9,-0.8,1.8,2470.912,13.28,0.04,152.2
2022-02-17T07:13:03,42.805,6.029,0.008,-0.025,-0.027,101.0,101.0,101.0,13.4,1505.2,324.7,-0.8,1.8,2470.912,13.28,0.026,162.3
2022-02-17T07:16:03,42.805,6.029,0.026,-0.008,-0.017,101.0,101.0,101.0,13.4,1505.2,324.7,-0.8,1.8,2470.872,13.28,0.027,107.1
2022-02-17T07:19:03,42.805,6.029,0.022,-0.018,-0.029,101.0,102.0,100.0,13.4,1505.2,329.0,-0.8,1.9,2470.893,13.28,0.028,129.3
2022-02-17T07:22:03,42.805,6.029,0.052,-0.009,0.009,102.0,102.0,100.0,13.4,1505.2,325.3,-0.8,1.8,2470.89,13.28,0.052,99.8
2022-02-17T07:25:03,42.805,6.029,0.064,-0.015,-0.002,102.0,101.0,101.0,13.4,1505.2,329.2,-0.8,1.8,2470.881,13.28,0.065,103.2
2022-02-17T07:28:03,42.805,6.029,0.006,-0.003,0.02,102.0,100.0,101.0,13.4,1505.2,324.2,-0.7,1.8,2470.87,13.28,0.006,116.6
2022-02-17T07:31:03,42.805,6.029,0.045,-0.007,0.012,100.0,101.0,100.0,13.4,1505.2,328.0,-0.7,1.8,2470.89,13.28,0.045,98.8
2022-02-17T07:34:03,42.805,6.029,0.017,-0.01,-0.01,100.0,101.0,101.0,13.3,1505.2,326.3,-0.7,1.8,2470.875,13.28,0.019,120.5
2022-02-17T07:37:03,42.805,6.029,0.017,-0.006,-0.021,100.0,103.0,100.0,13.3,1505.2,328.2,-0.8,1.8,2470.851,13.28,0.018,109.4
2022-02-17T07:40:03,42.805,6.029,0.019,-0.015,-0.012,100.0,102.0,100.0,13.4,1505.2,329.1,-0.7,1.8,2470.889,13.28,0.024,128.3
2022-02-17T07:43:03,42.805,6.029,0.02,-0.017,0.01,102.0,100.0,100.0,13.3,1505.2,325.3,-0.8,1.8,2470.88,13.28,0.026,130.4
2022-02-17T07:46:03,42.805,6.029,0.024,-0.009,-0.011,101.0,102.0,100.0,13.4,1505.2,329.1,-0.8,1.8,2470.897,13.28,0.025,110.6
2022-02-17T07:49:03,42.805,6.029,0.012,-0.011,-0.029,100.0,102.0,100.0,13.3,1505.2,325.7,-0.8,1.8,2470.877,13.28,0.016,132.5
2022-02-17T07:52:03,42.805,6.029,0.034,-0.003,0.037,101.0,102.0,100.0,13.4,1505.2,327.8,-0.7,1.8,2470.895,13.28,0.034,95.0
2022-02-17T07:55:03,42.805,6.029,0.043,-0.022,-0.015,100.0,101.0,100.0,13.3,1505.2,325.6,-0.7,1.8,2470.85,13.28,0.048,117.1
2022-02-17T07:58:03,42.805,6.029,0.011,-0.005,0.0,102.0,101.0,100.0,13.4,1505.2,328.6,-0.8,1.8,2470.89,13.28,0.012,114.4
2022-02-17T08:04:03,42.805,6.029,0.036,-0.002,0.029,103.0,100.0,100.0,13.3,1505.2,330.5,-0.8,1.8,2470.873,13.28,0.036,93.2
2022-02-17T08:07:03,42.805,6.029,0.014,-0.002,-0.039,102.0,100.0,100.0,13.3,1505.2,327.3,-0.8,1.8,2470.881,13.28,0.014,98.1
2022-02-17T08:10:03,42.805,6.029,0.032,-0.005,0.014,100.0,100.0,100.0,13.4,1505.2,326.5,-0.7,1.8,2470.889,13.28,0.032,98.9
2022-02-17T08:13:03,42.805,6.029,0.043,-0.01,0.016,101.0,100.0,101.0,13.4,1505.2,328.7,-0.7,1.8,2470.93,13.28,0.044,103.1
2022-02-17T08:16:03,42.805,6.029,0.061,-0.045,-0.044,103.0,101.0,99.0,13.4,1505.2,325.8,-0.8,1.8,2470.896,13.28,0.075,126.4
2022-02-17T08:19:03,42.805,6.029,0.019,-0.017,-0.012,100.0,102.0,99.0,13.4,1505.2,331.8,-0.8,1.8,2470.913,13.28,0.025,131.8
2022-02-17T08:22:03,42.805,6.029,0.031,-0.008,-0.022,101.0,100.0,100.0,13.4,1505.2,323.3,-0.7,1.8,2470.85,13.28,0.032,104.5
2022-02-17T08:25:03,42.805,6.029,0.017,-0.019,-0.035,101.0,101.0,100.0,13.4,1505.2,327.2,-0.8,1.8,2470.892,13.28,0.025,138.2
2022-02-17T08:28:03,42.805,6.029,0.004,-0.008,-0.009,101.0,101.0,100.0,13.4,1505.2,332.2,-0.7,1.8,2470.892,13.28,0.008,153.4
2022-02-17T08:31:03,42.805,6.029,0.039,-0.008,-0.013,101.0,101.0,100.0,13.4,1505.2,323.6,-0.8,1.8,2470.883,13.28,0.039,101.6
2022-02-17T08:34:03,42.805,6.029,0.043,-0.005,0.018,102.0,100.0,100.0,13.4,1505.2,325.4,-0.8,1.8,2470.885,13.28,0.043,96.6
2022-02-17T08:37:03,42.805,6.029,0.041,-0.012,0.0,100.0,101.0,100.0,13.4,1505.2,325.2,-0.8,1.8,2470.867,13.28,0.042,106.3
2022-02-17T08:40:03,42.805,6.029,0.028,-0.014,0.002,101.0,101.0,100.0,13.3,1505.2,326.3,-0.8,1.8,2470.85,13.28,0.031,116.6
2022-02-17T08:43:03,42.805,6.029,0.04,-0.029,-0.017,101.0,101.0,100.0,13.3,1505.2,329.4,-0.8,1.8,2470.85,13.28,0.049,125.9
2022-02-17T08:46:03,42.805,6.029,0.017,-0.004,-0.002,101.0,101.0,100.0,13.4,1505.2,328.6,-0.8,1.8,2470.829,13.28,0.017,103.2
2022-02-17T08:49:03,42.805,6.029,0.044,-0.011,-0.027,101.0,102.0,100.0,13.3,1505.2,324.0,-0.8,1.8,2470.841,13.28,0.045,104.0
2022-02-17T08:52:03,42.805,6.029,0.017,-0.013,-0.008,101.0,101.0,100.0,13.3,1505.2,329.0,-0.7,1.8,2470.838,13.28,0.021,127.4
2022-02-17T08:55:03,42.805,6.029,0.015,-0.002,0.017,101.0,102.0,100.0,13.4,1505.2,327.4,-0.8,1.8,2470.826,13.28,0.015,97.6
2022-02-17T08:58:03,42.805,6.029,0.039,-0.02,-0.048,101.0,101.0,100.0,13.4,1505.2,325.3,-0.8,1.8,2470.884,13.28,0.043,117.1
2022-02-17T09:04:03,42.805,6.029,0.004,-0.006,-0.01,101.0,101.0,100.0,13.3,1505.2,323.0,-0.8,1.8,2470.904,13.28,0.007,146.3
2022-02-17T09:07:03,42.805,6.029,0.03,-0.009,-0.017,102.0,101.0,100.0,13.4,1505.2,326.3,-0.8,1.8,2470.876,13.28,0.031,106.7
2022-02-17T09:10:03,42.805,6.029,0.05,-0.034,0.009,101.0,101.0,99.0,13.4,1505.2,325.0,-0.8,1.8,2470.846,13.28,0.06,124.2
2022-02-17T09:13:03,42.805,6.029,0.028,-0.026,-0.029,101.0,101.0,100.0,13.4,1505.2,327.3,-0.8,1.8,2470.884,13.28,0.038,132.9
2022-02-17T09:16:03,42.805,6.029,0.043,-0.018,0.003,101.0,101.0,100.0,13.4,1505.2,326.2,-0.8,1.8,2470.862,13.28,0.046,112.7
2022-02-17T09:19:03,42.805,6.029,0.024,-0.002,-0.001,101.0,101.0,100.0,13.4,1505.2,328.6,-0.8,1.8,2470.818,13.28,0.024,94.8
2022-02-17T09:22:03,42.805,6.029,0.022,-0.007,-0.028,100.0,102.0,100.0,13.4,1505.2,326.2,-0.7,1.8,2470.875,13.28,0.023,107.6
2022-02-17T09:25:03,42.805,6.029,0.027,-0.012,0.008,101.0,101.0,100.0,13.4,1505.2,328.5,-0.8,1.9,2470.831,13.28,0.029,114.0
2022-02-17T09:28:03,42.805,6.029,0.045,-0.02,-0.014,101.0,101.0,100.0,13.3,1505.2,324.5,-0.8,1.8,2470.797,13.28,0.049,114.0
2022-02-17T09:31:03,42.805,6.029,0.008,0.028,0.038,100.0,101.0,100.0,13.4,1505.2,324.3,-0.8,1.8,2470.811,13.28,0.029,15.9
2022-02-17T09:34:03,42.805,6.029,-0.009,-0.024,-0.021,101.0,101.0,100.0,13.4,1505.2,327.3,-0.8,1.8,2470.815,13.28,0.025,200.6
2022-02-17T09:37:03,42.805,6.029,0.018,-0.028,0.01,101.0,100.0,101.0,13.4,1505.2,329.0,-0.8,1.8,2470.841,13.28,0.033,147.3
2022-02-17T09:40:03,42.805,6.029,0.018,0.006,0.006,99.0,102.0,101.0,13.4,1505.2,329.1,-0.8,1.8,2470.827,13.28,0.018,71.6
2022-02-17T09:43:03,42.805,6.029,-0.009,-0.002,-0.008,101.0,101.0,100.0,13.3,1505.2,328.6,-0.8,1.8,2470.831,13.28,0.009,257.5
2022-02-17T09:46:03,42.805,6.029,0.008,0.002,0.026,98.0,101.0,101.0,13.4,1505.2,325.9,-0.7,1.8,2470.85,13.28,0.008,76.0
2022-02-17T09:49:03,42.805,6.029,0.011,-0.026,-0.039,101.0,100.0,100.0,13.4,1505.2,327.4,-0.8,1.8,2470.828,13.28,0.028,157.1
2022-02-17T09:52:03,42.805,6.029,0.034,-0.005,0.026,100.0,102.0,100.0,13.4,1505.2,324.2,-0.8,1.8,2470.776,13.28,0.034,98.4
2022-02-17T09:55:03,42.805,6.029,0.031,0.0,-0.023,101.0,101.0,100.0,13.3,1505.2,327.0,-0.8,1.8,2470.794,13.28,0.03,90.0